YO3IEZ-WX Weather Reports


time (UTC)temp
C
wind
direction
speed
KPH
gust
KPH
rain 1hr
cm
rain 24hr
cm
rain mn
cm
humidity
%
barometer
mb
20260506134546 25 128 8.0 14.5 0.00 0.00 0.00 41 1003.6
20260506133102 25 144 6.4 16.1 0.00 0.00 0.00 40 1003.7
20260506131547 25 161 8.0 19.3 0.00 0.00 0.00 41 1003.7
20260506130134 25 136 3.2 17.7 0.00 0.00 0.00 41 1003.8
20260506124552 25 208 4.8 12.9 0.00 0.00 0.00 41 1003.9
20260506123052 26 133 4.8 12.9 0.00 0.00 0.00 40 1004.0
20260506121555 26 192 3.2 11.3 0.00 0.00 0.00 39 1004.1
20260506120055 25 211 6.4 14.5 0.00 0.00 0.00 40 1004.3
20260506114547 24 159 8.0 16.1 0.00 0.00 0.00 42 1004.4
20260506113050 24 169 3.2 19.3 0.00 0.00 0.00 42 1004.3
20260506111547 25 205 3.2 16.1 0.00 0.00 0.00 41 1004.4
20260506110050 23 83 6.4 19.3 0.00 0.00 0.00 43 1004.4
20260506104554 23 139 6.4 16.1 0.00 0.00 0.00 45 1004.5
20260506103044 23 138 9.7 19.3 0.00 0.00 0.00 45 1004.5
20260506101550 23 119 8.0 17.7 0.00 0.00 0.00 44 1004.7
20260506100103 22 179 9.7 19.3 0.00 0.00 0.00 45 1004.7
20260506094605 23 191 9.7 19.3 0.00 0.00 0.00 44 1004.9
20260506093047 23 163 8.0 16.1 0.00 0.00 0.00 43 1004.9
20260506091546 23 236 6.4 14.5 0.00 0.00 0.00 40 1004.9
20260506090044 22 209 6.4 16.1 0.00 0.00 0.00 43 1005.0
20260506084553 22 189 6.4 16.1 0.00 0.00 0.00 42 1005.1
20260506083055 21 138 6.4 16.1 0.00 0.00 0.00 46 1005.0
20260506081601 21 137 6.4 16.1 0.00 0.00 0.00 46 1005.0
20260506073046 20 180 3.2 9.7 0.00 0.00 0.00 49 1005.0
20260506071550 19 178 3.2 12.9 0.00 0.00 0.00 52 1005.1
20260506061547 17 108 3.2 9.7 0.00 0.00 0.00 58 1005.1
20260506044551 13 0 0.0 3.2 0.00 0.00 0.00 70 1005.0
20260506043044 12 115 0.0 6.4 0.00 0.00 0.00 70 1004.8
20260506041549 12 117 1.6 6.4 0.00 0.00 0.00 71 1004.6
20260506040051 11 119 1.6 4.8 0.00 0.00 0.00 73 1004.5
20260506034607 11 119 0.0 4.8 0.00 0.00 0.00 76 1004.5
20260506033046 11 119 0.0 3.2 0.00 0.00 0.00 75 1004.4
20260506031552 11 0 0.0 1.6 0.00 0.00 0.00 75 1004.4
20260506030050 11 119 0.0 3.2 0.00 0.00 0.00 74 1004.3
20260506024553 11 119 1.6 6.4 0.00 0.00 0.00 74 1004.0
20260506023056 11 119 3.2 6.4 0.00 0.00 0.00 74 1003.9
20260506021547 11 117 3.2 8.0 0.00 0.00 0.00 74 1003.9
20260506020051 11 150 3.2 8.0 0.00 0.00 0.00 75 1004.0
20260506014551 11 151 1.6 6.4 0.00 0.00 0.00 76 1004.1
20260506013106 11 151 1.6 4.8 0.00 0.00 0.00 78 1004.0
20260506011547 11 0 0.0 4.8 0.00 0.00 0.00 78 1004.0
20260506010119 11 0 1.6 8.0 0.00 0.00 0.00 77 1003.9
20260506004549 12 151 1.6 4.8 0.00 0.00 0.00 77 1003.9
20260506003045 12 0 0.0 4.8 0.00 0.00 0.00 74 1003.8
20260506001600 13 136 0.0 6.4 0.00 0.00 0.00 70 1003.7
20260506000053 13 129 1.6 8.0 0.00 0.00 0.00 69 1003.7
20260505234549 13 175 4.8 6.4 0.00 0.00 0.00 69 1003.7
20260505233057 13 177 1.6 6.4 0.00 0.00 0.00 69 1003.6
20260505231551 14 177 1.6 8.0 0.00 0.00 0.00 67 1003.7
20260505230054 15 207 1.6 6.4 0.00 0.00 0.00 63 1003.8
20260505224547 16 0 0.0 0.0 0.00 0.00 0.00 59 1003.7
20260505223049 16 213 0.0 3.2 0.00 0.00 0.00 57 1003.8
20260505221548 16 0 0.0 8.0 0.00 0.00 0.00 56 1003.9
20260505220048 16 217 1.6 6.4 0.00 0.00 0.00 57 1003.9
20260505214550 16 0 0.0 3.2 0.00 0.00 0.00 57 1003.8
20260505213043 16 0 0.0 4.8 0.00 0.00 0.00 56 1003.8
20260505211548 16 0 0.0 6.4 0.00 0.00 0.00 57 1003.8
20260505210047 16 0 0.0 4.8 0.00 0.00 0.00 59 1003.9
20260505204546 16 0 0.0 0.0 0.00 0.00 0.00 59 1003.8
20260505203047 17 0 0.0 3.2 0.00 0.00 0.00 58 1003.9
20260505201551 17 0 0.0 4.8 0.00 0.00 0.00 58 1003.8
20260505200049 17 219 1.6 4.8 0.00 0.00 0.00 57 1003.7
20260505194547 18 0 0.0 1.6 0.00 0.00 0.00 55 1003.7
20260505193053 18 0 0.0 0.0 0.00 0.00 0.00 54 1003.6
20260505191600 18 0 0.0 6.4 0.00 0.00 0.00 53 1003.5
20260505190058 18 220 1.6 6.4 0.00 0.00 0.00 54 1003.6
20260505184546 18 220 0.0 4.8 0.00 0.00 0.00 55 1003.6
20260505183113 19 0 1.6 6.4 0.00 0.00 0.00 55 1003.5
20260505181555 19 222 1.6 6.4 0.00 0.00 0.00 53 1003.4
20260505180051 20 0 0.0 6.4 0.00 0.00 0.00 54 1003.3
20260505174548 20 0 0.0 4.8 0.00 0.00 0.00 56 1003.2
20260505173051 20 0 1.6 4.8 0.00 0.00 0.00 56 1003.2
20260505171553 20 0 0.0 4.8 0.00 0.00 0.00 55 1003.2
20260505170052 21 0 0.0 3.2 0.00 0.00 0.00 53 1003.1
20260505164547 21 0 0.0 6.4 0.00 0.00 0.00 51 1003.1
20260505163052 22 229 0.0 8.0 0.00 0.00 0.00 50 1003.0
20260505161605 22 228 1.6 9.7 0.00 0.00 0.00 50 1003.0
20260505153051 23 220 1.6 8.0 0.00 0.00 0.00 47 1003.2
20260505151611 23 213 0.0 6.4 0.00 0.00 0.00 45 1003.4